This demonstration page uses our WeatherBlox Daily Observations layout. Learn more.

Left ArrowRight Arrow

Hourly Observations for May 21, 2022

Temp ( °F °C ) Dew Point ( °F °C ) Humidity (%) Winds ( mph kmh ) Pressure ( in mb ) Visibility ( mi km ) Precip ( " mm )
12:51 am 00:51 Clear 73 22.8 37 2.8 27 27 NW 13 20 29.64 1004 10 16 0.00 0.00
1:51 am 01:51 Clear 72 22.2 37 2.8 28 28 WNW 9 15 29.65 1004 10 16 0.00 0.00
2:51 am 02:51 Clear 68 20 35 1.7 30 30 WNW 5 7 29.67 1005 10 16 0.00 0.00
3:51 am 03:51 Clear 68 20 35 1.7 30 30 NNW 6 9 29.69 1005 10 16 0.00 0.00
4:51 am 04:51 Clear 61 16.1 33 0.6 35 35 E 7 11 29.72 1007 10 16 0.00 0.00
5:51 am 05:51 Sunny 63 17.2 34 1.1 34 34 E 6 9 29.75 1007 10 16 0.00 0.00
6:51 am 06:51 Sunny 71 21.7 37 2.8 29 29 E 9 15 29.76 1008 10 16 0.00 0.00
7:51 am 07:51 Sunny 73 22.8 37 2.8 27 27 ESE 6 9 29.78 1008 10 16 0.00 0.00
8:51 am 08:51 Sunny 76 24.4 37 2.8 24 24 VRB 7 11 29.78 1009 10 16 0.00 0.00
9:51 am 09:51 Sunny 80 26.7 35 1.7 20 20 VRB 3 6 29.78 1009 10 16 0.00 0.00
10:51 am 10:51 Sunny 81 27.2 33 0.6 18 18 Calm 29.76 1008 10 16 0.00 0.00
11:51 am 11:51 Sunny 83 28.3 32 0 16 16 VRB 3 6 29.75 1008 10 16 0.00 0.00
12:51 pm 12:51 Sunny 87 30.6 30 -1.1 13 13 undefined N/A 29.72 1007 10 16 0.00 0.00
1:51 pm 13:51 Sunny 90 32.2 28 -2.2 11 11 NW 9 15 29.71 1006 10 16 0.00 0.00
2:51 pm 14:51 Sunny 90 32.2 26 -3.3 10 10 Calm 29.70 1006 10 16 0.00 0.00
3:51 pm 15:51 Sunny 90 32.2 25 -3.9 9 9 Calm 29.69 1005 10 16 0.00 0.00
4:51 pm 16:51 Sunny 92 33.3 21 -6.1 7 7 NW 17 28 29.69 1006 10 16 0.00 0.00
5:51 pm 17:51 Sunny 91 32.8 23 -5 8 8 WNW 17 28 29.70 1006 10 16 0.00 0.00
6:51 pm 18:51 Sunny 87 30.6 23 -5 9 9 NW 17 28 29.71 1006 10 16 0.00 0.00
7:51 pm 19:51 Clear 82 27.8 24 -4.4 12 12 NW 9 15 29.75 1007 10 16 0.00 0.00
8:51 pm 20:51 Clear 78 25.6 26 -3.3 15 15 NW 8 13 29.78 1009 10 16 0.00 0.00
9:51 pm 21:51 Clear 76 24.4 26 -3.3 16 16 NW 10 17 29.80 1009 10 16 0.00 0.00
10:51 pm 22:51 Clear 74 23.3 26 -3.3 17 17 NW 10 17 29.82 1010 10 16 0.00 0.00
11:51 pm 23:51 Clear 74 23.3 29 -1.7 19 19 NW 13 20 29.83 1010 10 16 0.00 0.00

Powered by AerisWeather